Weather History for KBLV - February, 2013

Change the Weather History Date:

Monday, February 4, 2013

  Actual Average Record
Temperature  
Mean Temperature 40 °F -  
Max Temperature 57 °F 41 °F 72 °F (1962)
Min Temperature 22 °F 22 °F -4 °F (1985)
Degree Days  
Heating Degree Days 26    
Moisture  
Dew Point 29 °F    
Average Humidity 69    
Maximum Humidity 88    
Minimum Humidity 47    
Precipitation  
Precipitation 0.00 in - - ()
Snow  
Snow 0.00 in - - ()
Snow Depth 3.00 in    
Sea Level Pressure  
Sea Level Pressure 29.90 in    
Wind  
Wind Speed 8 mph (NE)    
Max Wind Speed 15 mph    
Max Gust Speed 17 mph    
Visibility 10 miles    
Events      
Averages and records for this station are not official NWS values.
T = Trace of Precipitation, MM = Missing Value Source: NWS Daily Summary

Daily Weather History Graph

Daily Weather History Graph

Search for Another Location

Airport or City:

Trip Planner

Search our weather history database for the weather conditions in past years. The results will help you decide how hot, cold, wet, or windy it might be!

Date:

Astronomy

Feb. 04, 2013 Rise Set
Actual Time 7:01 AM CST 5:25 PM CST
Civil Twilight 6:34 AM CST 5:53 PM CST
Nautical Twilight 6:02 AM CST 6:24 PM CST
Astronomical Twilight 5:31 AM CST 6:55 PM CST
Moon 1:36 AM CST (2/4) 11:50 AM CST (2/4)
Length of Visible Light 11h 18m
Length of Day
10h 23m
Last Quarter, 37% of the Moon is Illuminated
Feb 4
Last Quarter
Feb 10
New
Feb 17
First Quarter
Feb 25
Full
Mar 4
Last Quarter

Hourly Weather History & Observations

Time (CST) Temp. Windchill Dew Point Humidity Pressure Visibility Wind Dir Wind Speed Gust Speed Precip Events Conditions
12:55 AM 22.3 °F 13.9 °F 16.5 °F 79% 30.04 in 10.0 mi SE 6.9 mph - N/A   Clear
1:55 AM 23.4 °F 15.2 °F 17.6 °F 79% 30.01 in 10.0 mi SE 6.9 mph - N/A   Clear
2:55 AM 26.2 °F 18.6 °F 20.1 °F 78% 29.98 in 10.0 mi SE 6.9 mph - N/A   Mostly Cloudy
5:55 AM 31.5 °F 25.8 °F 25.2 °F 78% 29.95 in 10.0 mi SE 5.8 mph - N/A   Partly Cloudy
6:55 AM 33.8 °F 27.7 °F 26.1 °F 73% 29.89 in 10.0 mi SSE 6.9 mph - N/A   Scattered Clouds
7:55 AM 35.4 °F 31.5 °F 27.3 °F 72% 29.85 in 10.0 mi Variable 4.6 mph - N/A   Partly Cloudy
8:55 AM 38.8 °F 31.2 °F 27.0 °F 62% 29.87 in 10.0 mi NNW 12.7 mph - N/A   Overcast
9:55 AM 39.7 °F - 27.9 °F 63% 29.88 in 10.0 mi Calm Calm - N/A   Overcast
10:55 AM 42.1 °F 37.7 °F 29.7 °F 61% 29.87 in 10.0 mi South 6.9 mph - N/A   Overcast
11:55 AM 47.3 °F - 34.3 °F 61% 29.83 in 10.0 mi SSW 10.4 mph - N/A   Overcast
12:55 PM 48.9 °F - 38.3 °F 67% 29.82 in 10.0 mi South 6.9 mph 17.3 mph N/A   Scattered Clouds
1:55 PM 53.8 °F - 40.1 °F 60% 29.80 in 10.0 mi SW 10.4 mph - N/A   Clear
2:55 PM 57.2 °F - 39.6 °F 52% 29.78 in 10.0 mi SE 6.9 mph - N/A   Clear
3:55 PM 54.1 °F - 34.3 °F 47% 29.81 in 10.0 mi NNW 15.0 mph - N/A   Clear
4:55 PM 51.1 °F - 32.5 °F 49% 29.82 in 10.0 mi North 11.5 mph - N/A   Clear
5:55 PM 44.6 °F 40.2 °F 32.2 °F 62% 29.86 in 10.0 mi North 8.1 mph - N/A   Clear
6:55 PM 40.8 °F 36.2 °F 30.6 °F 67% 29.91 in 10.0 mi NE 6.9 mph - N/A   Clear
7:55 PM 37.4 °F 30.8 °F 28.8 °F 71% 29.93 in 10.0 mi North 9.2 mph - N/A   Clear
8:55 PM 33.8 °F 24.8 °F 27.7 °F 78% 29.97 in 10.0 mi North 12.7 mph - N/A   Clear
9:55 PM 31.5 °F 22.3 °F 27.1 °F 84% 30.00 in 10.0 mi NNW 11.5 mph - N/A   Mostly Cloudy
10:55 PM 30.6 °F 22.4 °F 26.4 °F 85% 29.99 in 10.0 mi North 9.2 mph - N/A   Overcast
11:55 PM 29.1 °F 22.1 °F 25.9 °F 88% 29.98 in 10.0 mi North 6.9 mph - N/A   Partly Cloudy